Location: Chakepay
(13.3931°S, 72.1925°W)
Time: 10:15:25
(UTC+00:00)

In-Cosmos 22 Rocket - Pass Details

Date: 15 November 2019
Orbit: 791 x 887 km, 81.2° (Epoch: 05 December)

Event Time Altitude Azimuth Distance (km) Brightness Sun altitude
Rises 09:34:44 0° 195° (SSW) 3,317 7.4 -9.2°
Reaches altitude 10° 09:37:12 10° 201° (SSW) 2,375 6.6 -8.6°
Maximum altitude 09:42:18 48° 274° (W) 1,031 4.3 -7.5°
Drops below altitude 10° 09:47:22 10° 347° (NNW) 2,347 6.2 -6.3°
Sets 09:49:48 0° 353° (N) 3,275 7.0 -5.8°
